Skip Page Navigation
NASA JPL Caltech
NASA Logo - Jet Propulsion Laboratory + View the NASA Portal
+ Near-Earth Object (NEO) Program
Search JPL
JPL Home Earth Solar System Stars & Galaxies Technology
JPL Solar System Dynamics
BODIES ORBITS EPHEMERIDES TOOLS PHYSICAL DATA DISCOVERY FAQ SITE MAP
JPL Small-Body Database Browser
Search: [ help ]  
9687 Uhlenbeck (4614 P-L)
Classification: Main-belt Asteroid          SPK-ID: 2009687
Ephemeris | Orbit Diagram | Orbital Elements | Physical Parameters | Discovery Circumstances ]

[ show orbit diagram ]
Orbital Elements at Epoch 2456400.5 (2013-Apr-18.0) TDB
Reference: MPO250306 (heliocentric ecliptic J2000)
 Element Value Uncertainty (1-sigma)   Units 
e 0.0087835 n/a  
a 2.8150767 n/a AU
q 2.7903505 n/a AU
i 6.05365 n/a deg
node 15.83263 n/a deg
peri 91.30512 n/a deg
M 304.47908 n/a deg
tp 2456666.5651037
(2014-Jan-09.06510370)
n/a JED
period 1725.1774165
4.72
n/a
n/a
d
yr
n 0.20867419 n/a deg/d
Q 2.8398029 n/a AU
  Orbit Determination Parameters
   # obs. used (total)      743  
   first obs. used      1951-??-??  
   last obs. used      2012-12-11  
   # oppositions      19  
   planetary ephem.      DE403  
   condition code      0  
   fit RMS      0.54  
   data source      MPC:mpn  
   producer      MPCLINUX  

Additional Information
 T_jup = 3.311 

Ephemeris | Orbit Diagram | Orbital Elements | Physical Parameters | Discovery Circumstances ]

Physical Parameter Table
Parameter Symbol Value Units Sigma Reference Notes
absolute magnitude H 13.7 mag n/a PDS3 (MPC 32910)  

9687 Uhlenbeck           Discovered 1960 Sept. 24 by C. J. van Houten and I. van Houten-Groeneveld on Palomar Schmidt plates taken by T. Gehrels.
Together with Samuel A. Goudsmit, Dutch-American physicist George E. Uhlenbeck (1900-1988) proposed the concept of electron spin at the University of Leiden in 1925. Spin is a fundamental property of neutrons, protons and other elementary particles. The name was suggested by W. A. Fröger.
NOTE: some special characters may not display properly (any characters within {} are an attempt to place the proper accent above a character)
Reference: 20010705/MPCPages.arcLast Updated: 2009-05-11

Alternate Designations
 4614 P-L = 1981 AL3 = 1991 FE4 
Ephemeris | Orbit Diagram | Orbital Elements | Physical Parameters | Discovery Circumstances ]
ABOUT SSD CREDITS/AWARDS PRIVACY/COPYRIGHT GLOSSARY LINKS
FirstGov 2013-May-24 15:06 UT
(server date/time)  
NASA Home Page
Site Manager:   Donald K. Yeomans
Webmaster  Alan B. Chamberlin